Location: Northam
(31.6525°S, 116.6655°E)
Time: 23:53:32
(UTC+08:00)

Envisat - Pass Details

Date: 24 May 2021
Orbit: 764 x 766 km, 98.1° (Epoch: 14 June)

Event Time Altitude Azimuth Distance (km) Brightness Sun altitude
Rises 05:49:44 0° 343° (NNW) 3,216 6.2 -14.9°
Reaches altitude 10° 05:52:25 10° 330° (NNW) 2,299 5.3 -14.3°
Maximum altitude 05:56:30 24° 276° (W) 1,540 4.0 -13.5°
Enters shadow 05:59:07 17° 235° (SW) 1,896 4.5 -13.0°
